Location: Dammartin
(48.9032°N, 1.6195°E)
Time: 12:02:29
(UTC+00:00)

Cosmos 2058 Rocket - Pass Details

Date: 03 February 2023
Orbit: 610 x 637 km, 82.5° (Epoch: 29 March)

Event Time Altitude Azimuth Distance (km) Brightness Sun altitude
Rises 18:00:04 0° 357° (N) 2,898 6.4 -11.1°
Reaches altitude 10° 18:02:29 10° 7° (N) 1,992 5.5 -11.5°
Maximum altitude 18:06:29 33° 72° (ENE) 1,053 3.7 -12.2°
Drops below altitude 10° 18:10:28 10° 137° (SE) 1,992 5.4 -12.8°
Sets 18:12:53 0° 147° (SSE) 2,899 6.3 -13.2°
